Regional Weather Roundup
Issued by NWS

Home | Current Version | Previous Version | Text Only | Print | Product List | Glossary On
Versions: 1 2 3 4 5 6 7 8 9 10 11 12 13 14 15 16 17 18 19 20 21 22 23 24 25 26 27 28 29 30 31 32 33 34 35 36 37 38 39 40 41 42 43 44 45 46 47 48 49 50
000
ASUS43 KDTX 272101
RWRMI
MICHIGAN HOURLY REGIONAL WEATHER ROUNDUP
NATIONAL WEATHER SERVICE DETROIT/PONTIAC MI
500 PM EDT SUN JUL 27 2014

NOTE: "FAIR" INDICATES FEW OR NO CLOUDS BELOW 12,000 FEET WITH NO
SIGNIFICANT WEATHER AND/OR OBSTRUCTION TO VISIBILITY.

MIZ047>049-052>055-059>063-066>070-074>076-081>083-272200-
SOUTHEAST LOWER MICHIGAN

CITY           SKY/WX    TMP DP  RH WIND       PRES   REMARKS
ADRIAN         PTSUNNY   84  64  50 W9        29.61F
ALMA           CLOUDY    75  59  57 N17G31    29.64R
ANN ARBOR      PTSUNNY   81  64  56 W9        29.61R
BAD AXE        RAIN      72  67  85 W6        29.65R
CARO           CLOUDY    68  65  90 NE5       29.62F
DETROIT CITY   PTSUNNY   82  67  60 E10       29.57F
DETROIT        PTSUNNY   77  69  76 SE10G22   29.59F
FLINT          CLOUDY    71  63  75 SW12G17   29.62S
GROSSE ILE     RAIN      73  70  88 CALM      29.59F
HILLSDALE      LGT RAIN  80  65  59 W7        29.63F
HOWELL         CLOUDY    65  64  94 E10       29.64S

CITY           SKY/WX    TMP DP  RH WIND       PRES   REMARKS
JACKSON        LGT RAIN  71  65  81 E6        29.62F
LAMBERTVILLE   PTSUNNY   72  68  88 CALM      29.62S
LANSING        CLOUDY    78  64  61 E5        29.62S
LAPEER         LGT RAIN  76  66  71 MISG      29.62F
MASON          PTSUNNY   74  63  68 SE7       29.63F
MONROE         PTSUNNY   77  70  78 CALM      29.60S
MT. CLEMENS    CLOUDY    76  68  77 E9        29.58F
PONTIAC        HAIL      72  66  83 W46G62    29.69R
PORT HOPE        N/A     65  60  84 N15G25    29.63F
PORT HURON     MOSUNNY   77  66  69 CALM      29.62F
TRI CITIES     PTSUNNY   69  57  65 N29G43    29.67R
TROY           RAIN      81  66  61 E7        29.59F
SAGINAW HB     CLOUDY    72  68  88 NE7       29.62R
$$
MIZ043>046-050>051-056>058-064>065-071>073-077>080-272200-
SOUTHWEST LOWER MICHIGAN

CITY           SKY/WX    TMP DP  RH WIND       PRES   REMARKS
BATTLE CREEK   MOSUNNY   80  61  52 W10       29.62F
BENTON HARBOR  MOSUNNY   79  63  57 W14G23    29.67S
BIG RAPIDS     PTSUNNY   70  65  84 NE8       29.65R
COLDWATER      PTSUNNY   85  62  45 W14G25    29.62F
FREMONT        FAIR      78  57  47 NW18G24   29.65S
HOLLAND        PTSUNNY   75  65  70 W12G17    29.71R
GRAND RAPIDS   LGT RAIN  78  64  61 W21G28    29.64S
IONIA          FAIR      80  61  52 W14G21    29.61R
KALAMAZOO      PTSUNNY   76  61  59 NW31G43   29.67R SQUALL  THUNDER
LUDINGTON      PTSUNNY   64  58  81 N10G16    29.69R
MARSHALL       MOSUNNY   80  65  60 W14G23    29.60F
MOUNT PLEASANT RAIN      62  59  91 NW9       29.67R
MUSKEGON       LGT RAIN  69  58  67 W14G22    29.68R
SOUTH HAVEN    MOSUNNY   78  69  74 W15       29.68R
$$
MIZ016>042-272200-
NORTHERN LOWER MICHIGAN

CITY           SKY/WX    TMP DP  RH WIND       PRES   REMARKS
ALPENA         CLOUDY    63  61  93 E5        29.68F
BEAVER ISLAND  LGT RAIN  64  63  97 NE6       29.75R
BELLAIRE       CLOUDY    69  64  84 NE9       29.67F
CADILLAC       CLOUDY    65  63  91 NE6       29.66F
CHARLEVOIX     CLOUDY    69  64  86 N10       29.74R
FRANKFORT      FOG       64  61  90 N10G17    29.67F VSB 3/4
GAYLORD        CLOUDY    64  61  90 NE8       29.71S
GRAYLING       LGT RAIN  64  64 100 E5        29.68F
HARBOR SPRINGS CLOUDY    68  60  75 N10       29.71S
HOUGHTON LAKE  LGT RAIN  62  60  93 E8        29.67F
MANISTEE       CLOUDY    63  57  82 N5        29.69F
OSCODA         LGT RAIN  63  61  93 E8        29.68F
PELLSTON       CLOUDY    69  61  75 N14       29.72S
ROGERS CITY    CLOUDY    64  63  97 NE6       29.71F
TRAVERSE CITY  CLOUDY    66  62  87 N9        29.66S
$$
MIZ007>008-015-272200-
EASTERN UPPER MICHIGAN

CITY           SKY/WX    TMP DP  RH WIND       PRES   REMARKS
KINROSS        CLOUDY    64  63  94 NW9       29.76R
MACKINAC ISLAN LGT RAIN  64  61  92 N7        29.74S
NEWBERRY       CLOUDY    61  55  80 NW9G18    29.78R
S. S. MARIE    CLOUDY    69  56  62 NE7       29.75R
MUNISING         N/A     56  51  84 NE12      29.84R
$$
MIZ004>006-011>014-085-272200-
CENTRAL UPPER MICHIGAN

CITY           SKY/WX    TMP DP  RH WIND       PRES   REMARKS
MANISTIQUE     CLOUDY    63  59  88 N12G18    29.77R
ESCANABA       CLOUDY    61  54  77 N10G23    29.80R
MENOMINEE      CLOUDY    66  61  82 NE20G28   29.75S
SAWYER-GWINN   CLOUDY    55  52  88 N9        29.88R
$$
MIZ001>003-009>011-084-272200-
WESTERN UPPER MICHIGAN

CITY           SKY/WX    TMP DP  RH WIND       PRES   REMARKS
IRON MOUNTAIN  CLOUDY    63  54  72 N14G23    29.85R
HOUGHTON       MOSUNNY   67  51  56 NE10G18   29.92R
COPPER HARBOR    N/A     60  51  72 N14       29.90R
IRONWOOD       CLOUDY    57  54  88 N8        29.96R
$$

ABBREVIATIONS USED IN REMARKS
   TC - TEMPERATURE IN CELSIUS
  WCI - WIND CHILL INDEX
   HX - HEAT INDEX
  VSB - VISIBILITY




USA.gov is the U.S. government's official web portal to all federal, state and local government web resources and services.